Regional Weather Roundup
Issued by NWS

Home | Current Version | Previous Version | Graphics & Text | Print | Product List | Glossary On
Versions: 1 2 3 4 5 6 7 8 9 10 11 12 13 14 15 16 17 18 19 20 21 22 23 24 25 26 27 28 29 30 31 32 33 34 35 36 37 38 39 40 41 42 43 44 45 46 47 48 49 50
000
ASUS45 KBOU 220207
RWRCO

WEATHER ROUNDUP FOR COLORADO
NATIONAL WEATHER SERVICE DENVER/BOULDER CO
800 PM MDT MON JUL 21 2014

NOTE: "FAIR" INDICATES FEW OR NO CLOUDS BELOW 12000 FEET WITH NO
SIGNIFICANT WEATHER AND/OR OBSTRUCTIONS TO VISIBILITY.

COZ001>005-013-030-031-220300-
...NORTHWEST COLORADO...

CITY           SKY/WX    TMP DP  RH WIND       PRES   REMARKS
CRAIG          PTCLDY    75  45  34 S12       30.19F
HAYDEN         PTCLDY    79  36  21 E6        30.24S
MEEKER         CLEAR     81  33  17 SW6       30.22R
MOUNT WERNER   NOT AVBL
STEAMBOAT SPGS PTCLDY    78  34  20 CALM      30.28S
WALDEN         PTCLDY    70  30  23 W14       30.39F
$$

COZ006>008-011-220300-
...WEST CENTRAL VALLEYS...

CITY           SKY/WX    TMP DP  RH WIND       PRES   REMARKS
GRAND JUNCTION CLEAR     90  17   7 NW14      30.08R
MONTROSE       PTCLDY    88  30  12 SW5       30.19R
EAGLE          PTCLDY   N/A N/A N/A MISG        N/A
RIFLE          CLEAR     89  32  13 W8        30.13R
DELTA          PTCLDY    92  33  12 S6        30.11S
NUCLA          PTCLDY    88  25  10 S9        30.23S
$$

COZ017>023-064>068-220300-
...SOUTHWEST COLORADO...

CITY           SKY/WX    TMP DP  RH WIND       PRES   REMARKS
DURANGO        PTCLDY    83  30  14 NW16      30.26R
CORTEZ         CLEAR     86  29  12 W6        30.22S
PAGOSA SPRINGS PTCLDY    80  34  18 CALM      30.36R
TELLURIDE      PTCLDY    73  30  20 W9        30.49R
WOLF CREEK PAS NOT AVBL
$$

COZ009-010-012-014-032>034-037-058>063-220300-
...CENTRAL COLORADO...

CITY           SKY/WX    TMP DP  RH WIND       PRES   REMARKS
ASPEN          MOCLDY    71  38  29 SW3       30.36R
BUENA VISTA    MOCLDY    71  38  29 W5        30.38R
COPPER MTN     MOCLDY    61  32  33 W15       30.75S
BERTHOUD PASS  FAIR      54  41  62 W7        30.80S
COTTONWOOD PAS MOCLDY    70  16  12 NW5       30.55R
GUNNISON       PTCLDY    75  37  25 N8        30.39R
KREMMLING      PTCLDY    77  32  19 NW3       30.32S
LEADVILLE      MOCLDY    67  30  25 NW8       30.55R
MONARCH PASS   MOCLDY    59  32  36 W13       30.84R
SALIDA         NOT AVBL
SUNLIGHT       PTCLDY    64  37  36 CALM      30.64S
WILKERSON PASS PTCLDY    59  32  36 NE3       30.70R
$$

COZ069>075-220300-
...SAN LUIS VALLEY/SANGRE DE CRISTO MOUNTAINS...

CITY           SKY/WX    TMP DP  RH WIND       PRES   REMARKS
ALAMOSA        LGT RAIN  69  51  52 S3        30.38R
LA VETA PASS   MOCLDY    59  37  44 CALM      30.58S
SAGUACHE       MOCLDY    72  43  35 CALM      30.40S
$$

COZ035-036-038>040-220300-
...NORTHERN COLORADO FRONT RANGE...

CITY           SKY/WX    TMP DP  RH WIND       PRES   REMARKS
DENVER INTL AP PTCLDY    86  37  17 SE5       30.13R
DMNS CITY PARK   N/A     82  51  34 S1        30.12R
AURORA         PTCLDY    81  45  28 SE9       30.16R
FRONT RANGE AP NOT AVBL
ERIE MUNI ARPT PTCLDY    85  47  27 CALM      30.11R
BOULDER MUN AP PTCLDY    86  46  25 CALM      30.12S
CENTENNIAL     PTCLDY    82  42  24 S12       30.17R
BROOMFIELD     NOT AVBL
FORT COLLINS   MOCLDY    88  46  23 CALM      30.07S
LONGMONT       MOCLDY    88  46  23 CALM      30.12R
$$

COZ041-046-047-076>085-087-088-220300-
...PIKES PEAK/PALMER DIVIDE AND SOUTHERN FOOTHILLS...

CITY           SKY/WX    TMP DP  RH WIND       PRES   REMARKS
COLO. SPRINGS  PTCLDY    82  44  26 CALM      30.23R
A. F. ACADEMY  MOCLDY    76  46  35 NW7       30.26R
ELLICOTT       PTCLDY    75  50  41 SW5       30.21S
FALCON         PTCLDY    74  49  41 W5        30.30S
FORT CARSON    PTCLDY    82  48  31 SW6       30.19S
LIMON          CLEAR     82  43  25 S3        30.14R
MONUMENT HILL  PTCLDY    70  45  40 SW7       30.29F
TRINIDAD       PTCLDY    76  50  40 SW7       30.20F
$$

COZ042>045-048>051-090-091-220300-
...NORTHEAST COLORADO...

CITY           SKY/WX    TMP DP  RH WIND       PRES   REMARKS
GREELEY ARPT   MOCLDY    84  54  34 NE6       30.07S
AKRON          CLEAR     85  46  25 S12       30.07S
BURLINGTON     MOCLDY    77  61  57 S8        30.05F
WRAY             N/A     89  54  30 SE8       30.00S
STERLING       CLEAR     88  61  40 CALM      30.01R
HOLYOKE        PTCLDY    82  61  47 S12       30.00R
FORT MORGAN    CLEAR     86  45  23 CALM      30.06S
$$

COZ086-089-092>099-220300-
...SOUTHEAST COLORADO...

CITY           SKY/WX    TMP DP  RH WIND       PRES   REMARKS
PUEBLO         CLEAR     85  50  29 SW8       30.08S
LA JUNTA       CLEAR     84  56  38 SW13      30.04F
LAMAR          PTCLDY    86  55  34 E8        30.01R
SPRINGFIELD      N/A     78  57  48 SE10      30.09R
$$


USA.gov is the U.S. government's official web portal to all federal, state and local government web resources and services.